Weather History for Rugby, ND

Change the Weather History Date:

Monday, February 18, 2013

  Actual Average Record
Temperature  
Mean Temperature 4 °F -  
Max Temperature 17 °F 22 °F 44 °F (1954)
Min Temperature -11 °F 3 °F -28 °F (1966)
Degree Days  
Heating Degree Days 61    
Moisture  
Dew Point 0 °F    
Average Humidity 80    
Maximum Humidity 100    
Minimum Humidity 70    
Precipitation  
Precipitation 5.76 in - - ()
Sea Level Pressure  
Sea Level Pressure 29.98 in    
Wind  
Wind Speed 21 mph (NNW)    
Max Wind Speed 28 mph    
Max Gust Speed 32 mph    
Visibility 6 miles    
Events Rain , Snow    
Averages and records for this station are not official NWS values.
T = Trace of Precipitation, MM = Missing Value Source: NWS Daily Summary

Daily Weather History Graph

Daily Weather History Graph

Search for Another Location

Airport:

Trip Planner

Search our weather history database for the weather conditions in past years. The results will help you decide how hot, cold, wet, or windy it might be!

Date:

Astronomy

Feb. 18, 2013 Rise Set
Actual Time 7:41 AM CST 6:07 PM CST
Civil Twilight 7:09 AM CST 6:39 PM CST
Nautical Twilight 6:33 AM CST 7:15 PM CST
Astronomical Twilight 5:56 AM CST 7:51 PM CST
Moon 11:40 AM CST (2/18) 2:36 AM CST (2/18)
Length of Visible Light 11h 29m
Length of Day
10h 25m
First Quarter, 58% of the Moon is Illuminated
Feb 18
First Quarter
Feb 25
Full
Mar 4
Last Quarter
Mar 11
New
Mar 19
First Quarter

Hourly Weather History & Observations

Time (CST) Temp. Windchill Dew Point Humidity Pressure Visibility Wind Dir Wind Speed Gust Speed Precip Events Conditions
12:15 AM 17.6 °F 0.5 °F 15.8 °F 93% 29.62 in 1.0 mi North 21.9 mph - 0.43 in Snow Light Snow
12:35 AM 17.6 °F 0.9 °F 15.8 °F 93% 29.63 in 1.5 mi North 20.7 mph 26.5 mph 0.66 in Snow Light Snow
12:55 AM 17.6 °F 0.9 °F 15.8 °F 93% 29.64 in 0.8 mi North 20.7 mph - 1.23 in Snow Light Snow
1:15 AM 17.6 °F 0.9 °F 15.8 °F 93% 29.66 in 0.5 mi North 20.7 mph - 0.55 in Snow Snow
1:35 AM 17.6 °F 0.9 °F 15.8 °F 93% 29.67 in 0.5 mi NNW 20.7 mph - 1.00 in Snow Snow
1:55 AM 15.8 °F -2.7 °F 15.8 °F 100% 29.68 in 0.8 mi NNW 24.2 mph - 1.38 in Snow Light Snow
2:15 AM 15.8 °F -3.1 °F 14.0 °F 93% 29.69 in 1.0 mi North 25.3 mph 29.9 mph 0.23 in Snow Light Snow
2:35 AM 15.8 °F -3.1 °F 14.0 °F 93% 29.70 in 0.8 mi North 25.3 mph 31.1 mph 0.50 in Snow Light Snow
3:15 AM 15.8 °F -1.5 °F 14.0 °F 93% 29.74 in 1.5 mi North 20.7 mph 24.2 mph 0.13 in Snow Light Snow
3:35 AM 14.0 °F -3.0 °F 12.2 °F 93% 29.75 in 1.2 mi North 18.4 mph - 0.37 in Snow Light Snow
3:55 AM 14.0 °F -5.8 °F 10.4 °F 86% 29.76 in 1.0 mi North 26.5 mph 32.2 mph 0.98 in Snow Light Snow
4:15 AM 12.2 °F -7.9 °F 10.4 °F 92% 29.77 in 0.8 mi North 25.3 mph 32.2 mph 0.25 in Snow Light Snow
4:35 AM 12.2 °F -6.7 °F 8.6 °F 85% 29.79 in 0.8 mi North 21.9 mph - 0.66 in Snow Light Snow
4:55 AM 10.4 °F -8.6 °F 8.6 °F 92% 29.80 in 0.8 mi North 20.7 mph - 1.15 in Snow Light Snow
5:15 AM 10.4 °F -10.3 °F 6.8 °F 85% 29.81 in 0.8 mi NNW 25.3 mph 28.8 mph 0.31 in Snow Light Snow
5:35 AM 10.4 °F -10.7 °F 6.8 °F 85% 29.82 in 2.0 mi North 26.5 mph 31.1 mph 0.45 in Snow Light Snow
5:55 AM 8.6 °F -11.9 °F 5.0 °F 85% 29.84 in 2.5 mi North 23.0 mph 26.5 mph 0.48 in Rain Light Freezing Rain
6:15 AM 8.6 °F -13.4 °F 5.0 °F 85% 29.84 in 2.5 mi North 27.6 mph - 0.01 in Snow Light Snow
6:35 AM 8.6 °F -11.4 °F 3.2 °F 79% 29.86 in 3.0 mi NNW 21.9 mph 28.8 mph 0.02 in Rain Light Freezing Rain
6:55 AM 6.8 °F -14.3 °F 1.4 °F 79% 29.87 in 2.5 mi North 23.0 mph 29.9 mph 0.03 in Rain Light Freezing Rain
7:15 AM 6.8 °F -11.8 °F 1.4 °F 79% 29.88 in 5.0 mi NNW 17.3 mph 27.6 mph N/A   Haze
7:35 AM 6.8 °F -11.3 °F -0.4 °F 72% 29.89 in 10.0 mi NNW 16.1 mph - N/A   Clear
7:55 AM 5.0 °F -10.8 °F -0.4 °F 78% 29.90 in 10.0 mi NW 11.5 mph - N/A   Scattered Clouds
8:15 AM 6.8 °F -11.3 °F 1.4 °F 79% 29.91 in 10.0 mi NW 16.1 mph 20.7 mph N/A   Mostly Cloudy
8:35 AM 6.8 °F -11.8 °F 3.2 °F 85% 29.92 in 9.0 mi NNW 17.3 mph 24.2 mph N/A   Overcast
8:55 AM 6.8 °F -12.4 °F 3.2 °F 85% 29.92 in 5.0 mi NNW 18.4 mph - N/A Snow Light Snow
9:15 AM 6.8 °F -14.3 °F 1.4 °F 79% 29.93 in 1.0 mi NNW 23.0 mph 27.6 mph N/A Rain Light Freezing Rain
9:35 AM 6.8 °F -13.4 °F 1.4 °F 79% 29.94 in 2.0 mi NNW 20.7 mph 28.8 mph N/A Rain Light Freezing Rain
9:55 AM 6.8 °F -15.9 °F 1.4 °F 79% 29.95 in 1.2 mi NNW 27.6 mph 32.2 mph 0.01 in Rain Light Freezing Rain
10:15 AM 6.8 °F -13.8 °F 1.4 °F 79% 29.95 in 1.8 mi NNW 21.9 mph 31.1 mph N/A Rain Light Freezing Rain
10:35 AM 5.0 °F -17.1 °F -0.4 °F 78% 29.96 in 2.5 mi NNW 24.2 mph 28.8 mph N/A Snow Light Snow
10:55 AM 5.0 °F -14.7 °F -0.4 °F 78% 29.97 in 7.0 mi NNW 18.4 mph 24.2 mph N/A   Scattered Clouds
11:15 AM 6.8 °F -14.7 °F -0.4 °F 72% 29.98 in 5.0 mi NNW 24.2 mph - N/A   Haze
11:35 AM 5.0 °F -16.7 °F -0.4 °F 78% 29.98 in 3.0 mi NNW 23.0 mph 32.2 mph N/A   Haze
11:55 AM 5.0 °F -18.3 °F -0.4 °F 78% 29.98 in 1.2 mi NNW 27.6 mph - N/A Snow Light Snow
12:15 PM 5.0 °F -17.1 °F -0.4 °F 78% 29.99 in 3.0 mi NNW 24.2 mph 28.8 mph N/A   Haze
12:35 PM 5.0 °F -17.1 °F -0.4 °F 78% 30.00 in 3.0 mi NNW 24.2 mph 31.1 mph N/A   Haze
12:55 PM 5.0 °F -16.2 °F -0.4 °F 78% 30.00 in 6.0 mi NNW 21.9 mph 27.6 mph N/A   Haze
1:15 PM 6.8 °F -12.9 °F -0.4 °F 72% 30.01 in 7.0 mi NNW 19.6 mph 25.3 mph N/A   Partly Cloudy
1:35 PM 6.8 °F -13.4 °F -0.4 °F 72% 30.01 in 5.0 mi NNW 20.7 mph - N/A   Haze
1:55 PM 5.0 °F -14.7 °F -0.4 °F 78% 30.03 in 9.0 mi North 18.4 mph 24.2 mph N/A   Partly Cloudy
2:15 PM 5.0 °F -16.2 °F -0.4 °F 78% 30.03 in 2.5 mi North 21.9 mph 27.6 mph N/A   Haze
2:35 PM 5.0 °F -17.9 °F -0.4 °F 78% 30.04 in 3.0 mi North 26.5 mph - N/A   Haze
2:55 PM 5.0 °F -16.7 °F -2.2 °F 72% 30.05 in 4.0 mi North 23.0 mph - N/A   Haze
3:15 PM 5.0 °F -15.2 °F -2.2 °F 72% 30.06 in 5.0 mi NNW 19.6 mph - N/A   Haze
3:35 PM 5.0 °F -16.7 °F -0.4 °F 78% 30.07 in 7.0 mi North 23.0 mph 26.5 mph N/A   Overcast
3:55 PM 5.0 °F -16.7 °F -0.4 °F 78% 30.08 in 3.0 mi North 23.0 mph 28.8 mph N/A   Haze
4:15 PM 5.0 °F -15.7 °F -0.4 °F 78% 30.09 in 5.0 mi North 20.7 mph - N/A Snow Light Snow
4:35 PM 3.2 °F -16.5 °F -2.2 °F 78% 30.10 in 10.0 mi NNW 17.3 mph 21.9 mph N/A   Overcast
4:55 PM 3.2 °F -18.1 °F -2.2 °F 78% 30.10 in 10.0 mi NNW 20.7 mph - N/A   Overcast
5:15 PM 1.4 °F -17.6 °F -4.0 °F 78% 30.12 in 10.0 mi NW 15.0 mph - N/A   Overcast
5:35 PM 1.4 °F -18.2 °F -4.0 °F 78% 30.13 in 10.0 mi NW 16.1 mph - N/A   Mostly Cloudy
5:55 PM -0.4 °F -21.2 °F -5.8 °F 78% 30.13 in 10.0 mi NW 17.3 mph - N/A   Scattered Clouds
6:15 PM -0.4 °F -19.2 °F -7.6 °F 72% 30.14 in 10.0 mi NW 13.8 mph - N/A   Clear
6:35 PM -0.4 °F -22.3 °F -5.8 °F 78% 30.15 in 10.0 mi NNW 19.6 mph 23.0 mph N/A   Clear
6:55 PM -0.4 °F -20.5 °F -7.6 °F 72% 30.16 in 10.0 mi NNW 16.1 mph 20.7 mph N/A   Clear
7:15 PM -2.2 °F -22.9 °F -7.6 °F 78% 30.17 in 10.0 mi NNW 16.1 mph - N/A   Clear
7:35 PM -2.2 °F -22.2 °F -9.4 °F 71% 30.17 in 10.0 mi NNW 15.0 mph - N/A   Clear
7:55 PM -4.0 °F -24.5 °F -11.2 °F 71% 30.17 in 10.0 mi NNW 15.0 mph - N/A   Clear
8:15 PM -4.0 °F -25.8 °F -9.4 °F 78% 30.18 in 10.0 mi NNW 17.3 mph - N/A   Clear
8:35 PM -4.0 °F -23.7 °F -11.2 °F 71% 30.18 in 10.0 mi NNW 13.8 mph - N/A   Clear
8:55 PM -7.6 °F -28.3 °F -13.0 °F 77% 30.19 in 10.0 mi NW 13.8 mph - N/A   Clear
9:15 PM -7.6 °F -25.7 °F -13.0 °F 77% 30.20 in 10.0 mi NW 10.4 mph - N/A   Clear
9:35 PM -9.4 °F -29.8 °F -14.8 °F 77% 30.20 in 10.0 mi NNW 12.7 mph - N/A   Clear
9:55 PM -7.6 °F -28.3 °F -13.0 °F 77% 30.21 in 10.0 mi NNW 13.8 mph - N/A   Clear
10:15 PM -9.4 °F -32.1 °F -14.8 °F 77% 30.22 in 10.0 mi NNW 16.1 mph - N/A   Clear
10:35 PM -7.6 °F -26.6 °F -14.8 °F 71% 30.23 in 10.0 mi NNW 11.5 mph - N/A   Clear
10:55 PM -9.4 °F -28.9 °F -14.8 °F 77% 30.24 in 10.0 mi NNW 11.5 mph - N/A   Clear
11:15 PM -9.4 °F -28.9 °F -16.6 °F 71% 30.25 in 10.0 mi NNW 11.5 mph - N/A   Clear
11:35 PM -9.4 °F -27.9 °F -16.6 °F 71% 30.26 in 10.0 mi NNW 10.4 mph - N/A   Clear
11:55 PM -11.2 °F -30.1 °F -18.4 °F 70% 30.26 in 10.0 mi NNW 10.4 mph - N/A   Clear